loading
|

THOR ABLESTAR DEB, 152

Orbit data source: Space-Track

THOR ABLESTAR DEB, 152 is space debris in LEO originally from a launch on Thu, 29 Jun 1961 UTC launched from the Air Force Eastern Test Range (AFETR). Debris objects in space refer to the collection of defunct objects orbiting the Earth. Examples of debris include non-operational satellites, rocket bodies, and fragments generated from explosions, collisions, or faulty payload assembly.

Loading next visibility...
Loading greatness...
THOR ABLESTAR DEB details
Identifier
152, 1961-015AN
Orbit
LEO
Last TLE update4 hours ago
Origin
Flag of USUSAF SSD (US)
ManufacturerUnknown
Mission statusUnknown
MissionUnknown
Bus & MotorUnknown
MassUnknown
Launch date (UTC)
1961-06-29 (63 years ago)
Launch vehicleUnknown
Launch site
Air Force Eastern Test Range (AFETR)
Object type
Payload
Rocket body
Debris
Radar Cross SectionMedium (>0.1 m² and <1 m²)

Expand to show TLE details & history

TLE from 4 hours ago
0 THOR ABLESTAR DEB
1   152U 61015AN  24259.13818719  .00001184  00000-0  63070-3 0  9994
2   152  66.5936 150.2237 0159292 271.4067  86.8778 14.10531193235754
Epoch: 2024-09-15T03:18Z
Definitive object data (Epoch: 2024-09-15T03:18:59.373Z)
Latitude0.00002°
Longitude105.89046°
Altitude855.189 km
Speed7.428 km/s
True Right ascension10h 00m 53s
True Declination0° 00' 00"
Sunlit
Object was in daylight at TLE epoch
Predictive object data (real-time)
Latitude-4.54096°
Longitude-72.605°
Altitude851.419 km
Speed7.432 km/s
Apparent Right ascension19h 25m 18s
Apparent Declination-49° 08' 41"
Sunlit
Object is in full shadow
Predictive observer data (real-time)
Local Sidereal Time00:15:11
Azimuth221.44° SW
Elevation-19.525°
Doppler factor1
Orbital elements
Apogee971.189 km
Perigee740.723 km
Semi-major axis7,234.093 km
Eccentricity0.0159292
Inclination66.5936°
RAAN150.2237°
Arg. of periapsis271.4067°
True anomaly88.70211°
Mean anomaly86.8778°
Eccentric anomaly87.7898°
Mean motion3.5275 °/min
BSTAR0.0006307
Period102.06 mins
No data available

THOR ABLESTAR DEB Visibility forecast

Observer location: 39.9160978°, -105.1181434

THOR ABLESTAR DEB is not visible in the next 10 days
Span
Click to sort rows by Start time (UTC) header in descending order
Start Az.
Max El. time (UTC)
Max El. Az.
Max El.
End time (UTC)
End Az.